Regional Weather Roundup
Issued by NWS

Home | Current Version | Previous Version | Graphics & Text | Print | Product List | Glossary On
Versions: 1 2 3 4 5 6 7 8 9 10 11 12 13 14 15 16 17 18 19 20 21 22 23 24 25 26 27 28 29 30 31 32 33 34 35 36 37 38 39 40 41 42 43 44 45 46 47 48 49 50
000
ASUS43 KLMK 230310
RWRKY
KENTUCKY REGIONAL WEATHER ROUNDUP
NATIONAL WEATHER SERVICE LOUISVILLE KY
1100 PM EDT MON SEP 22 2014

NOTE "FAIR" INDICATES FEW OR NO CLOUDS BELOW 12,000 FEET
WITH NO SIGNIFICANT WEATHER AND/OR OBSTRUCTIONS TO VISIBILITY.

KYZ001>023-026-027-061>063-070>075-230400-
WESTERN AND SOUTH CENTRAL KENTUCKY

CITY           SKY/WX    TMP DP  RH WIND       PRES   REMARKS
PADUCAH        CLEAR     54  49  83 CALM      30.23R
HENDERSON      CLEAR     50  45  81 CALM      30.26R
OWENSBORO      CLEAR     60  49  67 NE3       30.26R
HOPKINSVILLE   CLEAR     55  46  70 NE5       30.24R
BOWLING GREEN  CLEAR    N/A N/A N/A CALM      30.25R
GLASGOW        CLEAR     52  44  73 NE3       30.25R
$$

KYZ024-025-028>034-038-045-046-053-230400-
NORTH CENTRAL KENTUCKY

CITY           SKY/WX    TMP DP  RH WIND       PRES   REMARKS
LOUISVILLE/SDF CLEAR     59  46  62 N3        30.26R
LOUISVILLE/LOU CLEAR     55  47  74 CALM      30.26R
FORT KNOX      CLEAR     48  46  90 N3        30.25R
$$

KYZ035>037-039>044-047>052-055>060-089>105-230400-
NORTHEAST KENTUCKY

CITY           SKY/WX    TMP DP  RH WIND       PRES   REMARKS
LEXINGTON      CLEAR     54  44  69 NE6       30.26R
COVINGTON      CLEAR     53  42  66 N3        30.27R
FRANKFORT      CLEAR     50  46  86 CALM      30.26R
$$

KYZ054-064>069-076>088-106>120-230400-
SOUTHEAST KENTUCKY

CITY           SKY/WX    TMP DP  RH WIND       PRES   REMARKS
JACKSON        PTCLDY    56  45  66 CALM      30.26R
LONDON         CLEAR     54  47  77 CALM      30.26R
SOMERSET       CLEAR     50  45  81 CALM      30.27R
MIDDLESBORO    CLEAR     51  50  96 CALM      30.25S
MONTICELLO     CLEAR     47  46  96 CALM      30.27R
$$




USA.gov is the U.S. government's official web portal to all federal, state and local government web resources and services.